Chandler, OK

9:36 PM CST on December 13, 2019 (GMT -0600)
Chandler Municipal

Weather History for KCQB - November, 2019

Change the Weather History Date:

Thursday, November 14, 2019

  Actual Average (KCUH) Record (KCUH)
Temperature  
Mean Temperature 40 °F -  
Max Temperature 54 °F 60 °F 81 °F (1967)
Min Temperature 26 °F 38 °F 12 °F (1986)
Degree Days  
Heating Degree Days 25    
Moisture  
Dew Point 28 °F    
Average Humidity 63    
Maximum Humidity 85    
Minimum Humidity 42    
Precipitation  
Precipitation 0.00 in - - ()
Sea Level Pressure  
Sea Level Pressure 30.34 in    
Wind  
Wind Speed 4 mph ()    
Max Wind Speed 15 mph    
Max Gust Speed 23 mph    
Visibility 9.7 miles    
Events      
Averages and records for this station are not official NWS values.
T = Trace of Precipitation, MM = Missing Value Source: Averaged Metar Reports

Daily Weather History Graph

Daily Weather History Graph

Search for Another Location

Airport or City:

Astronomy

Nov. 14, 2019 Rise Set
Actual Time 7:01 AM CST 5:20 PM CST
Civil Twilight 6:34 AM CST 5:48 PM CST
Nautical Twilight 6:04 AM CST 6:18 PM CST
Astronomical Twilight 5:33 AM CST 6:49 PM CST
Moon 7:10 PM CST 8:56 AM CST
Length of Visible Light 11h 13m
Length of Day
10h 19m
Waning Gibbous, 95% of the Moon is Illuminated
Nov 14
Waning Gibbous
Nov 19
Last Quarter
Nov 26
New
Dec 4
First Quarter
Dec 11
Full

Hourly Weather History & Observations

Time (CST) Temp. Windchill Dew Point Humidity Pressure Visibility Wind Dir Wind Speed Gust Speed Precip Events Conditions
1:15 AM 32.9 °F - 20.3 °F 60% 30.16 in 10.0 mi Calm Calm - N/A   Clear
1:35 AM 32.5 °F - 20.3 °F 61% 30.17 in 10.0 mi Calm Calm - N/A   Clear
2:15 AM 31.3 °F - 21.0 °F 66% 30.19 in 10.0 mi Calm Calm - N/A   Clear
2:55 AM 31.8 °F 27.3 °F 21.7 °F 66% 30.20 in 10.0 mi WNW 4.6 mph - N/A   Clear
3:15 AM 32.0 °F 28.7 °F 20.7 °F 63% 30.21 in 10.0 mi WNW 3.5 mph - N/A   Clear
3:35 AM 32.4 °F - 20.5 °F 62% 30.21 in 10.0 mi Calm Calm - N/A   Clear
4:15 AM 32.2 °F 27.7 °F 20.1 °F 61% 30.23 in 10.0 mi WNW 4.6 mph - N/A   Clear
4:35 AM 31.8 °F 26.2 °F 21.2 °F 65% 30.24 in 10.0 mi WNW 5.8 mph - N/A   Clear
4:55 AM 30.9 °F 26.2 °F 20.3 °F 65% 30.24 in 10.0 mi NW 4.6 mph - N/A   Clear
5:15 AM 28.0 °F 20.8 °F 21.0 °F 75% 30.24 in 10.0 mi NNW 6.9 mph - N/A   Clear
5:55 AM 27.5 °F 22.2 °F 21.9 °F 80% 30.27 in 10.0 mi NNW 4.6 mph - N/A   Clear
6:15 AM 26.8 °F 19.3 °F 21.4 °F 80% 30.28 in 10.0 mi NNW 6.9 mph - N/A   Clear
6:35 AM 26.6 °F 19.1 °F 21.7 °F 82% 30.28 in 10.0 mi NNW 6.9 mph - N/A   Clear
6:55 AM 27.1 °F 19.7 °F 21.9 °F 81% 30.29 in 10.0 mi NNW 6.9 mph - N/A   Clear
7:15 AM 27.3 °F 19.1 °F 21.9 °F 80% 30.30 in 10.0 mi NNW 8.1 mph - N/A   Clear
7:55 AM 31.3 °F 24.7 °F 25.2 °F 78% 30.32 in 10.0 mi NNW 6.9 mph - N/A   Clear
8:15 AM 32.9 °F 27.5 °F 26.4 °F 77% 30.33 in 10.0 mi North 5.8 mph - N/A   Clear
8:35 AM 35.2 °F 30.3 °F 28.0 °F 75% 30.34 in 10.0 mi North 5.8 mph - N/A   Clear
8:55 AM 37.8 °F 31.8 °F 28.6 °F 69% 30.35 in 10.0 mi North 8.1 mph - N/A   Clear
9:15 AM 40.1 °F 35.3 °F 29.8 °F 67% 30.36 in 10.0 mi North 6.9 mph - N/A   Clear
9:30 AM 42.1 °F 37.1 °F 29.7 °F 61% 30.36 in 10.0 mi NNE 8.1 mph - N/A   Clear
9:55 AM 44.8 °F 40.4 °F 30.7 °F 58% 30.38 in 10.0 mi North 8.1 mph - N/A   Clear
10:15 AM 46.0 °F 41.9 °F 31.1 °F 56% 30.38 in 10.0 mi NNE 8.1 mph - N/A   Clear
10:35 AM 46.2 °F 42.2 °F 31.3 °F 56% 30.39 in 10.0 mi NNE 8.1 mph - N/A   Clear
10:55 AM 47.1 °F - 31.8 °F 55% 30.39 in 10.0 mi NE 9.2 mph - N/A   Clear
11:35 AM 49.1 °F - 32.2 °F 52% 30.39 in 7.0 mi North 11.5 mph - N/A   Clear
11:55 AM 49.1 °F - 32.0 °F 52% 30.38 in 10.0 mi North 8.1 mph - N/A   Clear
12:15 PM 49.6 °F - 31.5 °F 50% 30.37 in 10.0 mi NNE 6.9 mph - N/A   Clear
12:35 PM 51.6 °F - 31.8 °F 47% 30.36 in 10.0 mi NNE 11.5 mph 16.1 mph N/A   Scattered Clouds
12:55 PM 52.0 °F - 31.8 °F 46% 30.35 in 10.0 mi NNE 11.5 mph 19.6 mph N/A   Scattered Clouds
1:15 PM 52.9 °F - 31.6 °F 44% 30.35 in 10.0 mi NNW 15.0 mph - N/A   Scattered Clouds
1:35 PM 53.2 °F - 31.3 °F 43% 30.34 in 10.0 mi North 13.8 mph 23.0 mph N/A   Clear
1:55 PM 53.4 °F - 31.5 °F 43% 30.34 in 10.0 mi North 11.5 mph - N/A   Clear
2:55 PM 54.1 °F - 31.5 °F 42% 30.33 in 10.0 mi NE 8.1 mph - N/A   Clear
3:15 PM 53.4 °F - 30.9 °F 42% 30.33 in 10.0 mi NNE 10.4 mph 16.1 mph N/A   Clear
3:35 PM 53.8 °F - 30.9 °F 42% 30.33 in 10.0 mi NNE 5.8 mph - N/A   Clear
3:55 PM 53.2 °F - 30.6 °F 42% 30.34 in 7.0 mi North 4.6 mph - N/A   Clear
4:35 PM 51.8 °F - 30.7 °F 45% 30.34 in 7.0 mi Calm Calm - N/A   Clear
5:15 PM 49.1 °F - 30.7 °F 49% 30.35 in 10.0 mi Calm Calm - N/A   Clear
5:35 PM 46.8 °F - 30.4 °F 53% 30.35 in 10.0 mi Calm Calm - N/A   Clear
5:55 PM 45.3 °F - 30.4 °F 56% 30.36 in 10.0 mi Calm Calm - N/A   Clear
6:15 PM 45.9 °F - 30.6 °F 55% 30.37 in 10.0 mi Calm Calm - N/A   Clear
6:35 PM 41.4 °F - 31.1 °F 67% 30.38 in 10.0 mi Calm Calm - N/A   Clear
6:55 PM 42.8 °F - 30.9 °F 63% 30.38 in 10.0 mi Calm Calm - N/A   Clear
7:15 PM 40.8 °F - 30.9 °F 68% 30.38 in 10.0 mi Calm Calm - N/A   Clear
7:35 PM 43.9 °F - 30.7 °F 60% 30.38 in 7.0 mi Calm Calm - N/A   Clear
7:55 PM 42.6 °F - 30.7 °F 63% 30.39 in 10.0 mi Calm Calm - N/A   Clear
8:15 PM 39.9 °F - 30.6 °F 69% 30.39 in 10.0 mi Calm Calm - N/A   Clear
8:35 PM 39.7 °F - 30.2 °F 69% 30.39 in 10.0 mi Calm Calm - N/A   Clear
8:55 PM 40.1 °F - 30.4 °F 68% 30.40 in 10.0 mi Calm Calm - N/A   Clear
9:15 PM 38.7 °F 35.2 °F 30.4 °F 72% 30.41 in 10.0 mi North 4.6 mph - N/A   Clear
9:35 PM 38.1 °F 34.6 °F 30.2 °F 73% 30.41 in 10.0 mi NNW 4.6 mph - N/A   Clear
9:55 PM 36.9 °F 33.1 °F 30.0 °F 76% 30.41 in 10.0 mi NNW 4.6 mph - N/A   Clear
10:15 PM 34.9 °F 30.8 °F 29.7 °F 81% 30.41 in 10.0 mi North 4.6 mph - N/A   Clear
10:35 PM 35.1 °F 32.2 °F 28.9 °F 78% 30.41 in 7.0 mi North 3.5 mph - N/A   Haze
10:55 PM 34.0 °F 31.0 °F 29.1 °F 82% 30.41 in 10.0 mi NNE 3.5 mph - N/A   Clear
11:15 PM 33.1 °F 30.0 °F 29.1 °F 85% 30.42 in 10.0 mi North 3.5 mph - N/A   Clear
11:35 PM 33.3 °F - 29.1 °F 85% 30.42 in 10.0 mi Calm Calm - N/A   Clear
11:55 PM 34.3 °F - 29.5 °F 82% 30.42 in 10.0 mi Calm Calm - N/A   Clear